Regional Weather Roundup
Issued by NWS Grand Forks, ND

Home | Current Version | Previous Version | Text Only | Print | Product List | Glossary Off
Versions: 1 2 3 4 5 6 7 8 9 10 11 12 13 14 15 16 17 18 19 20 21 22 23 24 25 26 27 28 29 30 31 32 33 34 35 36 37 38 39 40 41 42 43 44 45 46 47 48 49 50

000
ASUS43 KFGF 072131
RWRFGF
PRAIRIE TO PINES  WEATHER ROUNDUP
NATIONAL WEATHER SERVICE EASTERN NORTH DAKOTA/GRAND FORKS ND
300 PM CST WED DEC 07 2016

 **SATELLITE DATA USED TO AUGMENT SKY COVER AT AUTOMATED STATIONS**
 *****  WEATHER ACROSS EASTERN NORTH DAKOTA  *****

CITY           SKY/WX    TMP DP  RH WIND       PRES   REMARKS
GRAND FORKS    LGT SNOW  20  15  81 NW24G30   30.01R VSB 1   WCI   3
GRAND FRKS AFB LGT SNOW  19  14  79 NW20G30   30.04R WCI   4
DEVILS LAKE    SNOW      12   9  87 NW29G36   30.09R VSB 1/2 WCI  -9
FARGO          LGT SNOW  17  10  74 W26G37    30.07R WCI  -2
WAHPETON ARPT  CLOUDY    14  10  85 W25G32    30.12R WCI  -5
$$

 ***** WEATHER ACROSS CENTRAL AND WESTERN NORTH DAKOTA  *****

CITY           SKY/WX    TMP DP  RH WIND       PRES   REMARKS
BISMARCK       CLOUDY     4  -2  76 NW20G37   30.32R WCI -17
MINOT          LGT SNOW   6   1  80 W35G41    30.27R WCI -19
JAMESTOWN      SNOW       8   5  87 NW38G47   30.15R VSB 1/4 WCI -17
MINOT AFB      HVY SNOW   5   0  78 NW33G45   30.26R VSB 1/4 WCI -20
GARRISON         N/A      2  -2  83 NW31G46   30.27R WCI -24
WILLISTON      CLOUDY     2  -6  69 NW18      30.45R WCI -19
DICKINSON      PTSUNNY    0  -7  72 NW26G33   30.33R HAZE    WCI -25
HETTINGER      MOSUNNY    4  -4  69 NW29G44   30.34R HAZE    WCI -20
$$

 *****  OTHER AIRPORT OBSERVATIONS IN OUR AREA  *****

CITY           SKY/WX    TMP DP  RH WIND       PRES   REMARKS
WALHALLA         N/A     19  19 100 NW25G37   30.05R FOG     WCI   2
GRAFTON AIRPOR CLOUDY    19  18  93 NW23G32   30.04R FOG     WCI   2
VALLEY CITY AR LGT SNOW   9   7  92 NW29G40   30.13R VSB 3/4 WCI -14
CANDO          LGT SNOW  14  10  85 NW24G31   30.15R WCI  -5
CAVALIER APRT  LGT SNOW  21  18  86 NW25G33   30.02R VSB 3/4 WCI   4
GWINNER        CLOUDY    14  10  85 W28G35    30.15R WCI  -6
SHEYENNE NWR     N/A     13   5  70 NW21      29.95S WCI  -5
ROLLA          HVY SNOW  10  10 100 NW33G41   30.11R WCI -13
 ***** THE ABOVE OBSERVATIONS ARE NON NWS ARE NOT QUALITY
       CONTROLLED AND MAY MIS-REPORT RAIN FOR SNOW...
$$

  *****  WEATHER ACROSS NORTHERN MINNESOTA  *****

CITY           SKY/WX    TMP DP  RH WIND       PRES   REMARKS
FLAG ISLAND    CLOUDY    25  21  86 NW23      29.85R FOG     WCI  10
WARROAD        LGT SNOW  25  21  86 NW15G23   29.87R WCI  12
ROSEAU         CLOUDY    27  19  74 N20       29.89R HAZE    WCI  13
HALLOCK          N/A     25  21  86 N23G29    29.97R WCI  10
THF RVR FALLS  LGT SNOW  19  18  93 W18       29.95R FOG     WCI   4
BAUDETTE       LGT SNOW  25  21  85 NW14G20   29.82R FOG     WCI  13
WASKISH        LGT SNOW  25  21  86 W13G21    29.83R WCI  13
CROOKSTON      LGT SNOW  19  18  93 NW26      30.00R WCI   1
STEPHEN NDAWN    N/A     21  19  93 NW21        N/A  WCI   6
GREENBUSH NDAW   N/A     23  21  93 NW18        N/A  WCI   9
$$
  *****  WEATHER ACROSS CENTRAL AND WEST MINNESOTA  *****

CITY           SKY/WX    TMP DP  RH WIND       PRES   REMARKS
FOSSTON        LGT SNOW  16  12  86 W18       29.94R WCI  -1
BEMIDJI        LGT SNOW  17  13  86 W21       29.89R VSB 3/4 WCI   0
PARK RAPIDS    LGT SNOW  15   7  70 W20       29.94R VSB 1   WCI  -2
ELBOW LAKE     LGT SNOW  13  10  86 NW21G26   30.10R VSB 3/4 WCI  -5
WADENA         LGT SNOW  12   7  79 W15G22    29.99R WCI  -4
DETROIT LAKES  LGT SNOW  16  12  86 W15G22    30.01R VSB 1   WCI   1
MOORHEAD       MIX PCPN  16  10  79 W24       30.07R VSB 3/4 WCI  -3
FERGUS FALLS   LGT SNOW  12   9  85 W21G28    30.13R VSB 3/4 WCI  -6
MORRIS MN      LGT SNOW  14   9  79 W25G35    30.11R WCI  -5
STAPLES        CLOUDY    12   9  85 W17G23    29.99R WCI  -5
$$
  *****  WEATHER ELSEWHERE ACROSS MINNESOTA  *****

CITY           SKY/WX    TMP DP  RH WIND       PRES   REMARKS
DULUTH         LGT SNOW  18  12  77 W21G32    29.81R BLWGSNOWWCI   1
INTRNTL FALLS  SNOW      25  20  81 NW14      29.75R VSB 1/2 WCI  13
ELY            LGT SNOW  21  18  86 W14G21    29.73R WCI   8
CLOQUET        FLURRIES  18   9  68 SW17G25   29.85R WCI   2
WHEATON        LGT SNOW  16  10  79 W20G28    30.16R WCI  -1
BRAINERD       CLOUDY    16   8  71 W20G28    29.96R WCI  -1
HIBBING        LGT SNOW  17  13  84 W10G21    29.80R VSB 3/4 WCI   5
ALEXANDRIA     LGT SNOW  13   9  84 W21G30    30.05R FOG     WCI  -5
SAINT CLOUD    FLURRIES  17   8  67 W18G29    30.03R WCI   1
MINNEAPOLIS    FLURRIES  20   9  62 W15G28    30.05R WCI   6
$$

  *****  WEATHER ACROSS SOUTH DAKOTA  *****

CITY           SKY/WX    TMP DP  RH WIND       PRES   REMARKS
SIOUX FALLS    MOSUNNY   19   7  59 NW25G35   30.23R WCI   1
BROOKINGS      LGT SNOW  14   7  73 NW29G35   30.16R WCI  -7
WATERTOWN      LGT SNOW   9   2  73 W28G36    30.16R WCI -13
HURON          CLOUDY    16   5  62 NW24G35   30.29R WCI  -2
SISSETON         N/A     14   6  70 NW23G36   30.13R WCI  -5
ABERDEEN       CLOUDY    11   0  61 NW26G35   30.26R WCI -10
MITCHELL       SUNNY     18   5  57 NW26G35   30.31R WCI  -1
PIERRE         PTSUNNY   13   4  67 NW30G39   30.33S WCI  -8
MOBRIDGE       MOSUNNY   10  -1  61 NW31G45   30.27R WCI -13
RAPID CITY     SUNNY     15  -4  42 NW18      30.33R WCI  -2
$$

  *****  SOME WEATHER IN NEARBY STATES *****

CITY           SKY/WX    TMP DP  RH WIND       PRES   REMARKS
GLASGOW MT     PTSUNNY    4  -6  63 NW24      30.51R WCI -19
GREAT FALLS MT CLOUDY     2  -7  66 W5        30.48S WCI  -8
CHEYENNE WY    SUNNY      6  -4  63 N15       30.14R WCI -12
SCOTTSBLUFF NE SUNNY     14   0  53 NW18G25   30.31S WCI  -3
OMAHA NE       PTSUNNY   25   7  46 NW17G26   30.32R WCI  12
DES MOINES IA  CLOUDY    25   9  50 W21G26    30.25R WCI  11
DAVENPORT IA   CLOUDY    26  17  68 W22       30.17R WCI  12
CHICAGO IL     PTSUNNY   26  18  71 SW15      30.09R WCI  14
EAU CLAIRE WI  CLOUDY    20  13  74 W13       30.00R WCI   7
LA CROSSE WI   CLOUDY    23  12  62 W16       30.08R WCI  10
$$

  *****  SOME NATIONAL WEATHER *****

CITY           SKY/WX    TMP DP  RH WIND       PRES   REMARKS
LA GUARDIA NY  CLOUDY    47  39  74 NW8       29.98S
RALEIGH NC     PTCLDY    60  40  47 SW5       30.03R
ATLANTA GA     MOSUNNY   60  44  55 W10       30.03R
NEW ORLEANS LA CLOUDY    61  57  87 N7        30.07S
OKLAHOMA CITY  CLOUDY    35  29  78 NE13      30.19R
ALBUQUERQUE NM PTSUNNY   44  20  38 N12       30.04R
SALT LAKE CITY MOSUNNY   28  12  51 NW6       30.28R WCI  22
LOS ANGELES CA PTSUNNY   61  50  67 SW8       30.07F
BOISE ID       SUNNY     23  17  78 S12       30.36F WCI  12
SEATTLE WA     MOSUNNY   37  23  56 N9        30.39F
$$

*** WEATHER ACROSS MANITOBA...SASKATCHEWAN AND ONTARIO ***
                ***ONTARIO***

CITY           SKY/WX    TMP DP  RH WIND       PRES   REMARKS
GERALDTON      LGT SNOW  23  21  93 W7        29.52R WCI  15
THUNDER BAY    LGT SNOW  28  25  86 W12G20    29.62R WCI  18
SIOUX LOOKOUT  LGT SNOW  21  18  86 N6        29.71R DRFTSNOWWCI  14
TORONTO        MOCLDY    36  23  60 SW12      29.92F
BIG TROUT LK   LGT SNOW  23  21  93 N8G17     29.84R WCI  14
PICKLE LAKE    LGT SNOW  21  19  93 N10G22    29.68R DRFTSNOWWCI  10
DRYDEN         LGT SNOW  21  19  93 N10G18    29.73R WCI  10
KENORA         LGT SNOW  21  19  93 N14G23    29.81R WCI   8
$$
                *** MANITOBA***

CITY           SKY/WX    TMP DP  RH WIND       PRES   REMARKS
BRANDON        FLURRIES  16  10  79 NW21G29   30.17R WCI  -2
DAUPHIN        LGT SNOW  18  14  86 N16       30.25R WCI   3
ISLAND LAKE    FLURRIES  19  16  86 N16G23    30.06R WCI   5
PILOT MOUND      N/A     14  12  92 NW26G33     N/A  WCI  -6
THE PAS        FLURRIES  12   7  79 NW15G22   30.37R WCI  -4
THOMPSON       FLURRIES   5  -2  72 N15G23    30.33R WCI -13
WINNIPEG       LGT SNOW  21  18  86 N24G32    30.02R BLWGSNOWWCI   4
LYNN LAKE      CLEAR     -8 -11  84 N12G17    30.45R WCI -27
CHURCHILL      SNOW      10   9  92 N28G40    30.32R VSB 1/8 WCI -11
GILLAM         FLURRIES   1  -4  78 N13G21    30.28R WCI -16
$$
                ***SASKATCHEWAN***

CITY           SKY/WX    TMP DP  RH WIND       PRES   REMARKS
ESTEVAN        SNOW       1  -2  85 NW31G38   30.36R VSB 1/2 WCI -24
KINDERSLEY     CRYSTALS  -2  -9  71 NW15      30.53R WCI -22
LLOYDMINSTER   PTSUNNY   -2  -9  71 NW13      30.56R WCI -21
PRINCE ALBERT  FLURRIES   5  -2  72 NW14      30.49R WCI -12
REGINA         CLOUDY     5  -2  72 NW22G29   30.42R WCI -16
YORKTON        CLOUDY    10   5  79 NW17G23   30.31R WCI  -7
N. BATTLEFORD  SUNNY      1  -4  78 NW14      30.56R WCI -17
LA RONGE       MOCLDY     0  -8  71 NW13G20   30.53R WCI -18
SASKATOON      FLURRIES   5  -2  72 NW14      30.52R WCI -12
SWIFT CURRENT  PTSUNNY   -6  -9  84 W18       30.45R WCI -29
$$
NOTE: THESE ARE AUTOMATED STATIONS WITH LIMITED QUALITY CONTROL
      "FAIR" INDICATES FEW OR NO CLOUDS BELOW 12,000 FEET WITH NO
      SIGNIFICANT WEATHER AND/OR OBSTRUCTIONS TO VISIBILITY.
      SKY/WX - SKY CONDITION AND SIGNIFICANT WEATHER.
      TMP - AIR TEMPERATURE.    DP   - DEWPOINT TEMPERATURE.
      RH  - RELATIVE HUMIDITY.  PRES - PRESSURE.
      HX  - HEAT INDEX.         WCI  - WIND CHILL INDEX.
$



USA.gov is the U.S. government's official web portal to all federal, state and local government web resources and services.